#timestamp,LO_Frequency,Hit,StdDev 
1669028415.5,286046996.6,N
1669028435.3,286046998.7,N
1669028455.2,286046998.9,N
1669028475.0,286047001.2,N
1669028475.9,286047001.2,N
1669028495.8,286046996.5,N
1669028515.6,286046998.4,N
1669028535.4,286046998.2,N
1669028555.3,286046999.7,N
1669028575.1,286046997.1,N
1669028595.8,286046997.1,N
1669028615.7,286046996.7,N
1669028635.5,286046998.9,N
1669028655.3,286047001.2,N
1669028675.2,286046997.8,N
1669028695.0,286046998.4,N
1669028695.9,286046998.4,N
1669028715.8,286046996.5,N
1669028735.6,286046996.9,N
1669028755.4,286046996.6,N
1669028775.3,286046997.3,N
1669028795.1,286046995.9,N
1669028815.8,286046996.9,N
1669028835.7,286046998.4,N
1669028855.5,286046998.2,N
1669028875.4,286046997.0,N
1669028895.2,286046996.8,N
1669028915.0,286046997.4,N
1669028915.9,286046997.4,N
1669028935.8,286046999.4,N
1669028955.6,286047026.0,Y
1669028975.4,286046999.8,P
1669028995.3,286047000.3,N
1669029015.1,286047000.9,N
1669029035.9,286046997.3,N
1669029055.7,286046998.4,N
1669029075.5,286046998.9,N
1669029095.4,286046996.7,N
1669029115.2,286046999.0,N
1669029135.0,286046998.9,N
1669029136.0,286046998.9,N
1669029155.8,286046999.0,N
1669029175.6,286046997.9,N
1669029195.5,286046999.2,N
1669029215.3,286046998.2,N
1669029235.1,286046997.9,N
1669029255.9,286047011.9,Y
1669029275.7,286046998.5,P
1669029295.6,286047000.8,P
1669029315.4,286046999.6,N
1669029335.2,286046998.8,N
1669029355.1,286046998.9,N
1669029356.0,286046998.9,N
1669029375.8,286047028.1,Y
1669029395.6,286047001.9,P
1669029415.5,286047002.3,N
1669029435.3,286047002.3,N
1669029455.2,286047002.1,N
1669029475.9,286047001.2,N
1669029495.7,286047000.0,N
1669029515.6,286047001.5,N
1669029535.4,286047002.0,N
1669029555.2,286047000.7,N
1669029575.1,286046998.5,N
1669029576.0,286046998.5,N
1669029595.8,286047000.1,N
1669029615.7,286047028.2,Y
1669029635.5,286046998.4,P
1669029655.3,286046999.4,N
1669029675.2,286047026.5,P
1669029695.0,286047026.2,N
1669029695.9,286047026.2,N
1669029715.7,286047000.6,N
1669029735.6,286047025.4,N
1669029755.4,286047024.4,N
1669029775.3,286047025.5,N
1669029795.1,286047026.8,N
1669029796.0,286047026.8,N
1669029815.8,286047026.7,N
1669029835.7,286047024.2,N
1669029855.5,286047024.0,N
1669029875.3,286047024.5,N
1669029895.2,286047026.8,N
1669029915.0,286047024.0,N
1669029915.9,286047024.0,N
1669029935.8,286047024.9,N
1669029955.6,286047022.3,N
1669029975.4,286047024.6,N
1669029995.3,286047024.4,N
1669030015.1,286047024.1,N
1669030035.8,286047024.9,N
1669030055.7,286047024.2,N
1669030075.5,286047024.2,N
1669030095.4,286047023.8,N
1669030115.2,286047023.9,N
1669030135.0,286047026.3,Y
1669030135.9,286047026.3,P
1669030155.8,286047003.7,N
1669030175.6,286047001.3,N
1669030195.5,286047001.8,N
1669030215.3,286047003.1,N
1669030235.1,286047002.0,N
1669030255.9,286047004.0,N
1669030275.7,286047004.2,N
1669030295.5,286047004.3,N
1669030315.4,286046999.7,N
1669030335.2,286047001.8,N
1669030355.1,286047004.4,N
1669030356.0,286047004.4,N
1669030375.8,286047003.5,N
1669030395.6,286047004.2,N
1669030415.5,286047002.2,N
1669030435.3,286047001.6,N
1669030455.1,286047001.7,N
1669030475.9,286047002.4,N
1669030495.7,286047001.6,N
1669030515.6,286047003.7,N
1669030535.4,286047006.0,N
1669030555.2,286047003.5,N
1669030575.1,286047003.3,N
1669030576.0,286047003.3,N
1669030595.8,286047004.0,N
1669030615.6,286047001.6,N
1669030635.5,286047002.2,N
1669030655.3,286047001.9,N
1669030675.2,286047002.0,N
1669030695.9,286046999.8,N
1669030715.7,286047000.9,N
1669030735.6,286046999.9,N
1669030755.4,286047000.2,N
1669030775.2,286047000.7,N
1669030795.1,286047000.6,N
1669030796.0,286047000.6,N
1669030815.8,286047000.1,N
1669030835.7,286047001.6,N
1669030855.5,286047004.0,N
1669030875.3,286047004.0,N
1669030895.2,286047004.2,N
1669030915.0,286047003.3,N
1669030915.9,286047003.3,N
1669030935.8,286047003.6,N
1669030955.6,286047001.9,N
1669030975.4,286047004.0,N
1669030995.3,286047002.3,N
1669031015.1,286047003.9,N
1669031035.8,286047003.9,N
1669031055.7,286047005.6,Y
1669031075.5,286047002.5,P
1669031095.4,286047001.3,P
1669031115.2,286047000.7,N
1669031135.0,286047000.8,N
1669031135.9,286047000.8,N
1669031155.8,286046999.0,N
1669031175.6,286046998.9,N
1669031195.4,286046999.5,N
1669031215.3,286046998.1,N
1669031235.1,286046998.2,N
1669031255.9,286046998.9,N
1669031275.7,286046999.3,N
1669031295.5,286047000.6,N
1669031315.4,286046998.1,N
1669031335.2,286046999.1,N
1669031355.0,286046998.5,N
1669031355.9,286046998.5,N
1669031375.8,286047001.1,N
1669031395.6,286046999.0,N
1669031415.5,286047000.8,N
1669031435.3,286046998.3,N
1669031455.1,286046999.4,N
1669031475.9,286046998.8,N
1669031495.7,286047000.1,N
1669031515.5,286047000.7,N
1669031535.4,286046998.2,N
1669031555.2,286047001.0,N
1669031575.1,286046998.5,N
1669031576.0,286046998.5,N
1669031595.8,286046998.5,N
1669031615.6,286046998.5,N
1669031635.5,286046999.0,N
1669031655.3,286046998.7,N
1669031675.1,286046997.1,Y
1669031695.9,286046998.3,P
1669031715.7,286047000.8,N
1669031735.6,286046998.3,N
1669031755.4,286046998.4,N
1669031775.2,286047001.0,N
1669031795.1,286047000.8,N
1669031796.0,286047000.8,N
1669031815.8,286046998.2,N
1669031835.6,286046998.3,N
1669031855.5,286046999.1,N
1669031875.3,286046996.5,Y
1669031895.2,286047001.2,P
1669031915.9,286047000.8,N
1669031935.7,286046998.2,N
1669031955.6,286046998.2,N
1669031975.4,286046999.2,N
1669031995.2,286046998.7,N
